User: anonymous   Login
Location: Unspecified
(0.0000°N, 0.0000°E)
Time: 23:51:06
(UTC+00:00)
Language:

Optus B3 - Orbit

View from above orbital plane
View from above orbital plane
View from above satellite
View from above satellite

Ground track
Ground track

The orbit data is extracted from the following two-line orbital elements,

1 23227U 94055A   14297.60328582 -.00000073  00000-0  00000+0 0  5835
2 23227 005.7685 058.0639 0006588 148.6803 207.6690 01.00274135 73785
Epoch (UTC): 24 October 2014 14:28:43
Eccentricity: 0.0006588
inclination: 5.7685°
perigee height: 35758 km
apogee height: 35813 km
right ascension of ascending node: 58.0639°
argument of perigee: 148.6803°
revolutions per day: 1.00274135
mean anomaly at epoch: 207.6690°
orbit number at epoch: 7378

The dashed part of the orbit path shows where the satellite is in the earth's shadow,  

DLR